TimeEDT,TemperatureF,Dew PointF,Humidity,Sea Level PressureIn,VisibilityMPH,Wind Direction,Wind SpeedMPH,Gust SpeedMPH,PrecipitationIn,Events,Conditions,WindDirDegrees,DateUTC
12:54 AM,54.0,50.0,86,29.80,-9999.0,North,-9999.0,-,N/A,,Unknown,0,2013-09-14 04:54:00
1:54 AM,53.1,48.9,86,29.81,-9999.0,North,-9999.0,-,N/A,,Unknown,0,2013-09-14 05:54:00
2:54 AM,52.0,50.0,93,29.83,-9999.0,North,-9999.0,-,0.01,,Unknown,0,2013-09-14 06:54:00
3:54 AM,52.0,50.0,93,29.83,-9999.0,North,-9999.0,-,0.01,,Unknown,0,2013-09-14 07:54:00
4:54 AM,52.0,51.1,97,29.84,-9999.0,North,-9999.0,-,0.02,,Unknown,0,2013-09-14 08:54:00
5:54 AM,51.1,50.0,96,29.86,-9999.0,North,-9999.0,-,0.02,,Unknown,0,2013-09-14 09:54:00
6:54 AM,51.1,50.0,96,29.88,-9999.0,North,-9999.0,-,0.01,,Unknown,0,2013-09-14 10:54:00
7:54 AM,51.1,50.0,96,29.90,-9999.0,North,-9999.0,-,0.02,,Unknown,0,2013-09-14 11:54:00
8:54 AM,52.0,50.0,93,29.91,-9999.0,North,-9999.0,-,N/A,,Unknown,0,2013-09-14 12:54:00
9:54 AM,53.1,50.0,89,29.93,-9999.0,North,-9999.0,-,N/A,,Unknown,0,2013-09-14 13:54:00
10:54 AM,54.0,48.9,83,29.92,-9999.0,North,-9999.0,-,N/A,,Unknown,0,2013-09-14 14:54:00
11:54 AM,53.1,48.0,83,29.94,-9999.0,North,-9999.0,-,N/A,,Unknown,0,2013-09-14 15:54:00
12:54 PM,55.0,48.0,77,29.94,-9999.0,North,-9999.0,-,N/A,,Unknown,0,2013-09-14 16:54:00
1:54 PM,55.9,48.0,75,29.94,-9999.0,North,-9999.0,-,N/A,,Unknown,0,2013-09-14 17:54:00
2:54 PM,57.0,46.9,69,29.93,-9999.0,North,-9999.0,-,N/A,,Unknown,0,2013-09-14 18:54:00
3:54 PM,59.0,46.9,64,29.94,-9999.0,North,-9999.0,-,N/A,,Unknown,0,2013-09-14 19:54:00
4:54 PM,57.0,48.0,72,29.96,-9999.0,North,-9999.0,-,N/A,,Unknown,0,2013-09-14 20:54:00
5:54 PM,55.9,48.0,75,29.99,-9999.0,North,-9999.0,-,N/A,,Unknown,0,2013-09-14 21:54:00
6:54 PM,55.0,46.9,74,30.01,-9999.0,North,-9999.0,-,N/A,,Unknown,0,2013-09-14 22:54:00
7:54 PM,54.0,46.9,77,30.02,-9999.0,North,-9999.0,-,N/A,,Unknown,0,2013-09-14 23:54:00
8:54 PM,52.0,48.9,89,30.04,-9999.0,North,-9999.0,-,N/A,,Unknown,0,2013-09-15 00:54:00
9:54 PM,51.1,48.9,92,30.05,-9999.0,North,-9999.0,-,N/A,,Unknown,0,2013-09-15 01:54:00
10:54 PM,48.9,46.9,93,30.06,-9999.0,North,-9999.0,-,N/A,,Unknown,0,2013-09-15 02:54:00
11:54 PM,46.9,46.9,100,30.08,-9999.0,North,-9999.0,-,N/A,,Unknown,0,2013-09-15 03:54:00